Time,TemperatureF,DewpointF,PressureIn,WindDirection,WindDirectionDegrees,WindSpeedMPH,WindSpeedGustMPH,Humidity,HourlyPrecipIn,Conditions,Clouds,dailyrainin,SoftwareType,DateUTC
2013-02-22 00:02:00,52.8,49.0,29.68,SW,228,2.0,4.0,86,0.00,,,0.00,weatherlink.com 1.10,2013-02-21 23:02:00,
2013-02-22 00:17:00,52.9,49.0,29.68,SW,214,2.0,4.0,85,0.00,,,0.00,weatherlink.com 1.10,2013-02-21 23:17:00,
2013-02-22 00:32:00,53.0,49.0,29.68,WSW,239,1.0,3.0,86,0.00,,,0.00,weatherlink.com 1.10,2013-02-21 23:32:00,
2013-02-22 00:47:00,53.3,49.0,29.68,West,259,2.0,7.0,85,0.00,,,0.00,weatherlink.com 1.10,2013-02-21 23:47:00,
2013-02-22 01:02:00,53.3,49.0,29.67,SW,229,1.0,5.0,84,0.00,,,0.00,weatherlink.com 1.10,2013-02-22 00:02:00,
2013-02-22 01:17:00,53.0,48.0,29.67,SW,219,1.0,3.0,84,0.00,,,0.00,weatherlink.com 1.10,2013-02-22 00:17:00,
2013-02-22 01:32:00,53.0,48.0,29.67,SSW,201,2.0,3.0,83,0.00,,,0.00,weatherlink.com 1.10,2013-02-22 00:32:00,
2013-02-22 01:47:00,53.1,48.0,29.66,SSE,158,0.0,3.0,83,0.00,,,0.00,weatherlink.com 1.10,2013-02-22 00:47:00,
2013-02-22 02:02:00,53.0,48.0,29.65,SSW,203,1.0,3.0,83,0.00,,,0.00,weatherlink.com 1.10,2013-02-22 01:02:00,
2013-02-22 02:17:00,53.0,48.0,29.64,SSW,204,1.0,3.0,84,0.00,,,0.00,weatherlink.com 1.10,2013-02-22 01:17:00,
2013-02-22 02:32:00,53.4,48.0,29.64,SW,226,1.0,4.0,82,0.00,,,0.00,weatherlink.com 1.10,2013-02-22 01:32:00,
2013-02-22 02:47:00,53.4,48.0,29.64,SW,232,2.0,6.0,83,0.00,,,0.00,weatherlink.com 1.10,2013-02-22 01:47:00,
2013-02-22 03:02:00,53.2,49.0,29.63,SSW,194,0.0,5.0,84,0.00,,,0.00,weatherlink.com 1.10,2013-02-22 02:02:00,
2013-02-22 03:17:00,53.8,49.0,29.62,SW,220,2.0,7.0,83,0.00,,,0.00,weatherlink.com 1.10,2013-02-22 02:17:00,
2013-02-22 03:32:00,54.3,49.0,29.61,SW,228,8.0,9.0,83,0.00,,,0.00,weatherlink.com 1.10,2013-02-22 02:32:00,
2013-02-22 03:47:00,55.3,50.0,29.61,WSW,246,5.0,15.0,81,0.00,,,0.00,weatherlink.com 1.10,2013-02-22 02:47:00,
2013-02-22 04:02:00,55.3,49.0,29.59,SW,220,5.0,10.0,80,0.00,,,0.00,weatherlink.com 1.10,2013-02-22 03:02:00,
2013-02-22 04:17:00,55.4,49.0,29.59,SSW,195,2.0,12.0,80,0.00,,,0.00,weatherlink.com 1.10,2013-02-22 03:17:00,
2013-02-22 04:32:00,55.5,49.0,29.58,WSW,238,5.0,8.0,79,0.00,,,0.00,weatherlink.com 1.10,2013-02-22 03:32:00,
2013-02-22 04:47:00,55.0,49.0,29.57,WSW,255,5.0,10.0,81,0.00,,,0.00,weatherlink.com 1.10,2013-02-22 03:47:00,
2013-02-22 05:02:00,55.2,49.0,29.57,SSW,192,1.0,11.0,80,0.00,,,0.00,weatherlink.com 1.10,2013-02-22 04:02:00,
2013-02-22 05:17:00,55.0,49.0,29.56,SSW,200,1.0,5.0,80,0.00,,,0.00,weatherlink.com 1.10,2013-02-22 04:17:00,
2013-02-22 05:32:00,55.1,49.0,29.56,SW,236,3.0,8.0,80,0.00,,,0.00,weatherlink.com 1.10,2013-02-22 04:32:00,
2013-02-22 05:47:00,55.2,49.0,29.55,SW,222,6.0,8.0,80,0.00,,,0.00,weatherlink.com 1.10,2013-02-22 04:47:00,
2013-02-22 06:02:00,56.0,49.0,29.56,SW,217,3.0,9.0,77,0.00,,,0.00,weatherlink.com 1.10,2013-02-22 05:02:00,
2013-02-22 06:17:00,56.8,49.0,29.55,WSW,240,4.0,15.0,75,0.00,,,0.00,weatherlink.com 1.10,2013-02-22 05:17:00,
2013-02-22 06:33:00,57.1,49.0,29.55,West,259,3.0,15.0,73,0.00,,,0.00,weatherlink.com 1.10,2013-02-22 05:33:00,
2013-02-22 06:48:00,57.2,48.0,29.54,West,259,5.0,13.0,72,0.00,,,0.00,weatherlink.com 1.10,2013-02-22 05:48:00,
2013-02-22 07:03:00,57.2,47.0,29.54,West,269,7.0,16.0,70,0.00,,,0.00,weatherlink.com 1.10,2013-02-22 06:03:00,
2013-02-22 07:18:00,57.5,47.0,29.53,West,264,7.0,15.0,69,0.00,,,0.00,weatherlink.com 1.10,2013-02-22 06:18:00,
2013-02-22 07:33:00,58.0,47.0,29.54,WSW,249,8.0,24.0,66,0.00,,,0.00,weatherlink.com 1.10,2013-02-22 06:33:00,
2013-02-22 07:48:00,57.8,47.0,29.54,SW,233,14.0,16.0,67,0.00,,,0.00,weatherlink.com 1.10,2013-02-22 06:48:00,
2013-02-22 08:03:00,57.8,47.0,29.54,West,264,14.0,20.0,68,0.00,,,0.00,weatherlink.com 1.10,2013-02-22 07:03:00,
2013-02-22 08:18:00,57.4,48.0,29.54,West,276,9.0,18.0,71,0.00,,,0.00,weatherlink.com 1.10,2013-02-22 07:18:00,
2013-02-22 08:33:00,57.2,48.0,29.55,WSW,243,11.0,19.0,71,0.00,,,0.00,weatherlink.com 1.10,2013-02-22 07:33:00,
2013-02-22 08:48:00,57.0,48.0,29.55,West,274,14.0,22.0,72,0.00,,,0.00,weatherlink.com 1.10,2013-02-22 07:48:00,
2013-02-22 09:03:00,56.6,48.0,29.55,WSW,246,11.0,19.0,73,0.00,,,0.00,weatherlink.com 1.10,2013-02-22 08:03:00,
2013-02-22 09:18:00,55.9,48.0,29.55,SW,228,9.0,15.0,76,0.00,,,0.00,weatherlink.com 1.10,2013-02-22 08:18:00,
2013-02-22 09:33:00,55.7,49.0,29.56,WNW,286,8.0,14.0,77,0.00,,,0.00,weatherlink.com 1.10,2013-02-22 08:33:00,
2013-02-22 09:48:00,55.7,49.0,29.56,WSW,238,5.0,16.0,77,0.00,,,0.00,weatherlink.com 1.10,2013-02-22 08:48:00,
2013-02-22 10:03:00,55.7,49.0,29.56,WSW,252,6.0,17.0,78,0.00,,,0.00,weatherlink.com 1.10,2013-02-22 09:03:00,
2013-02-22 10:18:00,55.3,49.0,29.56,NW,304,6.0,17.0,79,0.00,,,0.00,weatherlink.com 1.10,2013-02-22 09:18:00,
2013-02-22 10:33:00,54.6,50.0,29.56,West,264,8.0,16.0,83,0.01,,,0.01,weatherlink.com 1.10,2013-02-22 09:33:00,
2013-02-22 10:48:00,54.5,50.0,29.57,NW,305,11.0,20.0,86,0.01,,,0.01,weatherlink.com 1.10,2013-02-22 09:48:00,
2013-02-22 11:03:00,53.1,50.0,29.57,West,278,9.0,13.0,90,0.09,,,0.09,weatherlink.com 1.10,2013-02-22 10:03:00,
2013-02-22 11:18:00,53.5,51.0,29.56,West,278,6.0,10.0,91,0.09,,,0.09,weatherlink.com 1.10,2013-02-22 10:18:00,
2013-02-22 11:33:00,54.4,51.0,29.56,WNW,295,6.0,16.0,87,0.08,,,0.09,weatherlink.com 1.10,2013-02-22 10:33:00,
2013-02-22 11:48:00,55.2,50.0,29.56,WNW,295,6.0,16.0,83,0.07,,,0.09,weatherlink.com 1.10,2013-02-22 10:48:00,
2013-02-22 12:03:00,56.2,50.0,29.56,WNW,283,3.0,11.0,81,0.00,,,0.09,weatherlink.com 1.10,2013-02-22 11:03:00,
2013-02-22 12:18:00,57.0,50.0,29.57,West,276,5.0,14.0,77,0.00,,,0.09,weatherlink.com 1.10,2013-02-22 11:18:00,
2013-02-22 12:33:00,56.3,49.0,29.58,West,278,5.0,16.0,76,0.00,,,0.09,weatherlink.com 1.10,2013-02-22 11:33:00,
2013-02-22 12:48:00,55.9,47.0,29.57,West,271,14.0,17.0,73,0.00,,,0.09,weatherlink.com 1.10,2013-02-22 11:48:00,
2013-02-22 13:03:00,56.1,48.0,29.57,West,274,4.0,13.0,74,0.00,,,0.09,weatherlink.com 1.10,2013-02-22 12:03:00,
2013-02-22 13:18:00,56.2,48.0,29.57,NW,316,11.0,17.0,74,0.00,,,0.09,weatherlink.com 1.10,2013-02-22 12:18:00,
2013-02-22 13:34:00,56.3,49.0,29.58,West,263,10.0,18.0,77,0.00,,,0.09,weatherlink.com 1.10,2013-02-22 12:34:00,
2013-02-22 13:48:00,57.2,49.0,29.57,NW,309,7.0,20.0,74,0.00,,,0.09,weatherlink.com 1.10,2013-02-22 12:48:00,
2013-02-22 14:03:00,57.8,48.0,29.57,WNW,298,14.0,18.0,71,0.00,,,0.09,weatherlink.com 1.10,2013-02-22 13:03:00,
2013-02-22 14:18:00,56.7,49.0,29.58,SW,228,5.0,20.0,74,0.00,,,0.09,weatherlink.com 1.10,2013-02-22 13:18:00,
2013-02-22 14:33:00,56.8,49.0,29.57,West,280,9.0,16.0,74,0.00,,,0.09,weatherlink.com 1.10,2013-02-22 13:33:00,
2013-02-22 14:48:00,57.9,49.0,29.57,West,281,8.0,19.0,73,0.00,,,0.09,weatherlink.com 1.10,2013-02-22 13:48:00,
2013-02-22 15:03:00,57.6,48.0,29.57,WNW,302,9.0,19.0,70,0.00,,,0.09,weatherlink.com 1.10,2013-02-22 14:03:00,
2013-02-22 15:18:00,56.7,46.0,29.58,West,278,7.0,20.0,68,0.00,,,0.09,weatherlink.com 1.10,2013-02-22 14:18:00,
2013-02-22 15:33:00,57.3,46.0,29.57,WNW,288,12.0,21.0,66,0.00,,,0.09,weatherlink.com 1.10,2013-02-22 14:33:00,
2013-02-22 15:48:00,58.0,47.0,29.57,NNW,335,3.0,20.0,66,0.00,,,0.09,weatherlink.com 1.10,2013-02-22 14:48:00,
2013-02-22 16:03:00,58.4,46.0,29.57,West,278,7.0,14.0,64,0.00,,,0.09,weatherlink.com 1.10,2013-02-22 15:03:00,
2013-02-22 16:19:00,58.3,46.0,29.56,WNW,283,8.0,14.0,64,0.00,,,0.09,weatherlink.com 1.10,2013-02-22 15:19:00,
2013-02-22 16:34:00,58.1,46.0,29.57,West,281,4.0,12.0,64,0.00,,,0.09,weatherlink.com 1.10,2013-02-22 15:34:00,
2013-02-22 16:49:00,58.4,46.0,29.57,West,275,4.0,10.0,64,0.00,,,0.09,weatherlink.com 1.10,2013-02-22 15:49:00,
2013-02-22 17:04:00,57.7,46.0,29.57,NW,304,3.0,9.0,66,0.00,,,0.09,weatherlink.com 1.10,2013-02-22 16:04:00,
2013-02-22 17:19:00,58.1,46.0,29.58,NW,309,6.0,10.0,64,0.00,,,0.09,weatherlink.com 1.10,2013-02-22 16:19:00,
2013-02-22 17:34:00,58.2,45.0,29.58,West,264,3.0,7.0,63,0.00,,,0.09,weatherlink.com 1.10,2013-02-22 16:34:00,
2013-02-22 17:49:00,58.2,45.0,29.57,West,263,3.0,4.0,62,0.00,,,0.09,weatherlink.com 1.10,2013-02-22 16:49:00,
2013-02-22 18:04:00,57.6,44.0,29.57,WSW,256,2.0,5.0,62,0.00,,,0.09,weatherlink.com 1.10,2013-02-22 17:04:00,
2013-02-22 18:19:00,57.1,44.0,29.57,West,280,0.0,2.0,63,0.00,,,0.09,weatherlink.com 1.10,2013-02-22 17:19:00,
2013-02-22 18:34:00,55.9,44.0,29.58,West,280,0.0,0.0,65,0.00,,,0.09,weatherlink.com 1.10,2013-02-22 17:34:00,
2013-02-22 18:49:00,55.1,45.0,29.58,SE,134,1.0,2.0,68,0.00,,,0.09,weatherlink.com 1.10,2013-02-22 17:49:00,
2013-02-22 19:04:00,54.9,46.0,29.58,ESE,111,2.0,3.0,73,0.00,,,0.09,weatherlink.com 1.10,2013-02-22 18:04:00,
2013-02-22 19:19:00,54.7,47.0,29.58,SSE,148,2.0,3.0,75,0.00,,,0.09,weatherlink.com 1.10,2013-02-22 18:19:00,
2013-02-22 19:34:00,54.5,47.0,29.59,SSE,155,5.0,5.0,75,0.00,,,0.09,weatherlink.com 1.10,2013-02-22 18:34:00,
2013-02-22 19:49:00,53.5,46.0,29.59,NE,56,1.0,3.0,77,0.00,,,0.09,weatherlink.com 1.10,2013-02-22 18:49:00,
2013-02-22 20:04:00,52.6,46.0,29.58,ENE,72,5.0,5.0,79,0.00,,,0.09,weatherlink.com 1.10,2013-02-22 19:04:00,
2013-02-22 20:19:00,51.3,47.0,29.58,ENE,70,4.0,5.0,86,0.00,,,0.09,weatherlink.com 1.10,2013-02-22 19:19:00,
2013-02-22 20:34:00,50.5,47.0,29.57,ENE,75,3.0,5.0,88,0.00,,,0.09,weatherlink.com 1.10,2013-02-22 19:34:00,
2013-02-22 20:49:00,49.9,47.0,29.56,ENE,67,4.0,4.0,90,0.00,,,0.09,weatherlink.com 1.10,2013-02-22 19:49:00,
2013-02-22 21:04:00,50.0,48.0,29.55,NE,50,6.0,10.0,91,0.00,,,0.09,weatherlink.com 1.10,2013-02-22 20:04:00,
2013-02-22 21:19:00,50.3,48.0,29.55,NE,48,6.0,10.0,90,0.00,,,0.09,weatherlink.com 1.10,2013-02-22 20:19:00,
2013-02-22 21:34:00,50.2,47.0,29.55,ENE,63,4.0,8.0,90,0.00,,,0.09,weatherlink.com 1.10,2013-02-22 20:34:00,
2013-02-22 21:49:00,50.4,48.0,29.55,East,91,4.0,8.0,90,0.00,,,0.09,weatherlink.com 1.10,2013-02-22 20:49:00,
2013-02-22 22:04:00,50.5,48.0,29.54,ENE,59,3.0,6.0,90,0.00,,,0.09,weatherlink.com 1.10,2013-02-22 21:04:00,
2013-02-22 22:19:00,50.6,48.0,29.53,ENE,70,2.0,6.0,90,0.00,,,0.09,weatherlink.com 1.10,2013-02-22 21:19:00,
2013-02-22 22:34:00,50.4,48.0,29.52,East,93,8.0,9.0,91,0.00,,,0.09,weatherlink.com 1.10,2013-02-22 21:34:00,
2013-02-22 22:49:00,50.1,48.0,29.51,ENE,67,4.0,9.0,92,0.00,,,0.09,weatherlink.com 1.10,2013-02-22 21:49:00,
2013-02-22 23:04:00,50.0,48.0,29.51,ENE,70,0.0,6.0,92,0.00,,,0.09,weatherlink.com 1.10,2013-02-22 22:04:00,
2013-02-22 23:19:00,50.0,48.0,29.51,ENE,68,7.0,9.0,93,0.00,,,0.09,weatherlink.com 1.10,2013-02-22 22:19:00,
2013-02-22 23:34:00,49.9,48.0,29.51,ENE,65,6.0,6.0,93,0.00,,,0.09,weatherlink.com 1.10,2013-02-22 22:34:00,
2013-02-22 23:49:00,50.1,48.0,29.49,NNE,13,5.0,9.0,93,0.03,,,0.12,weatherlink.com 1.10,2013-02-22 22:49:00,